Regional Weather Roundup
Issued by NWS Upton, NY

Current Version | Previous Version | Graphics & Text | Print | Product List | Glossary Off
Versions: 1 2 3 4 5 6 7 8 9 10 11 12 13 14 15 16 17 18 19 20 21 22 23 24 25 26 27 28 29 30 31 32 33 34 35 36 37 38 39 40 41 42 43 44 45 46 47 48 49 50

000
ASUS41 KOKX 301105
RWROKX

REGIONAL WEATHER ROUNDUP
NATIONAL WEATHER SERVICE NEW YORK NY
600 AM EST FRI JAN 30 2015

NOTE: "FAIR" INDICATES FEW OR NO CLOUDS BELOW 12,000 FEET WITH NO
SIGNIFICANT WEATHER AND/OR OBSTRUCTIONS TO VISIBILITY.

NYZ071-072-176-178-NJZ106-104-301200-
NEW YORK CITY METRO AREA


CITY           SKY/WX    TMP DP  RH WIND       PRES   REMARKS
CENTRAL PARK   CLOUDY    35  27  72 W3        29.86F
LAGUARDIA APRT FLURRIES  35  26  69 W7        29.84F WCI  29
KENNEDY INTL   FLURRIES  37  27  67 W10       29.86F WCI  30
NEWARK/LIBERTY CLOUDY    32  28  85 W5        29.85F WCI  27
BRNX BOT. GARD   N/A    N/A N/A N/A W3        29.86F
TETERBORO      FLURRIES  31  28  89 NW5       29.85S WCI  26
$$

NYZ177-179-078>081-301200-
LONG ISLAND NEW YORK

CITY           SKY/WX    TMP DP  RH WIND       PRES   REMARKS
FARMINGDALE    CLOUDY    35  30  82 CALM      29.85S
ISLIP          FLURRIES  34  31  88 CALM      29.83F
SHIRLEY        MIX PCPN  34  31  88 SW3       29.86S
WESTHAMPTON    LGT RAIN  33  29  85 CALM      29.86F
MONTAUK POINT    N/A     35  32  88 CALM      29.86F
$$

NYZ052-065-067-301200-
HUDSON VALLEY

CITY           SKY/WX    TMP DP  RH WIND       PRES   REMARKS
WHITE PLAINS   FLURRIES  30  29  96 CALM      29.82F
NEWBURGH       CLOUDY    25  25 100 NW9       29.84F FOG     WCI  15
MONTGOMERY     LGT SNOW  26  24  92 CALM      29.82F FOG
POUGHKEEPSIE   CLOUDY    30  27  88 CALM      29.84F FOG
ALBANY         CLOUDY    28  24  85 S7        29.84S WCI  21
$$

NJZ001-105-106-008-010-013-015-019>022-104-301200-
NEW JERSEY

CITY           SKY/WX    TMP DP  RH WIND       PRES   REMARKS
NEWARK/LIBERTY CLOUDY    32  28  85 W5        29.85F WCI  27
TETERBORO      FLURRIES  31  28  89 NW5       29.85S WCI  26
CALDWELL       CLOUDY    29  27  92 CALM      29.85F FOG
MORRISTOWN     CLOUDY    30  28  93 CALM      29.85S
SOMERVILLE     FLURRIES  29  26  89 CALM      29.84F
SUSSEX         LGT SNOW  26  23  88 CALM      29.83S FOG
ANDOVER          N/A     26  24  92 CALM      29.84S
TRENTON        CLOUDY    30  25  81 NW6       29.85F WCI  24
MILLVILLE      CLOUDY    36  26  67 W12       29.88R WCI  28
ATLANTIC CITY  CLOUDY    36  26  67 W7        29.87R WCI  30
WRIGHTSTOWN    CLOUDY    33  25  73 W6        29.84R WCI  28
TOMS RIVER     CLOUDY    36  28  75 CALM      29.84R
BELMAR         CLOUDY    36  23  60 W6        29.84S WCI  31
$$

PAZ047>061-062-071-301200-
EASTERN PENNSYLVANIA

CITY           SKY/WX    TMP DP  RH WIND       PRES   REMARKS
PHILADELPHIA   CLOUDY    35  24  64 W9        29.89R WCI  28
ALLENTOWN      LGT SNOW  28  24  85 W5        29.87R FOG     WCI  23
SCRANTON       LGT SNOW  28  23  81 SW8       29.84R WCI  20
$$

CTZ002-004>006-009-010-012-RIZ004-006-007-MAZ004-011-015-301200-
SOUTHERN NEW ENGLAND
 IN CT

CITY           SKY/WX    TMP DP  RH WIND       PRES   REMARKS
BRADLEY INTL   CLOUDY    29  26  89 SW3       29.84F
HARTFORD       CLOUDY    32  29  88 S5        29.85F WCI  27
DANBURY        LGT SNOW  31  26  82 CALM      29.84F
WTRBRY/OXFORD  LGT SNOW  30  18  59 CALM      29.82F
BRIDGEPORT     CLOUDY    33  32  96 CALM      29.85F
MERIDEN        CLOUDY    30  29  96 CALM      29.84F FOG
NEW HAVEN      CLOUDY    33  31  92 CALM      29.85F FOG
CHESTER        CLOUDY    32  32 100 W3        29.83F
GROTON         CLOUDY    34  31  88 CALM      29.85F
WILLIMANTIC    CLOUDY    29  26  89 CALM      29.85F

 IN RI

CITY           SKY/WX    TMP DP  RH WIND       PRES   REMARKS
PROVIDENCE     CLOUDY    32  30  92 N3        29.86F
BLOCK ISLAND   CLOUDY    37  30  75 W5        29.84F WCI  34
WESTERLY       CLOUDY    35  32  88 CALM      29.85F

 IN MA

CITY           SKY/WX    TMP DP  RH WIND       PRES   REMARKS
BOSTON         LGT SNOW  31  29  92 SE6       29.87F FOG     WCI  25
WORCESTER      CLOUDY    26  26 100 S3        29.81F
WESTFIELD      CLOUDY    28  24  85 SW5       29.83F WCI  23
PROVINCETOWN   CLOUDY    36  30  80 SE10      29.88F WCI  28
NANTUCKET      CLOUDY    38  32  79 SE17      29.88F WCI  28
$$

ANZ330-335-338-340-345-350-353-355-301200-
COASTAL MARINE OBSERVATIONS


STATION/POSITION TIME  SKY/WX   TEMP    WIND        PRES    VSBY  WAVE
                                AIR SEA DIR/SP/G                  HT/PER
                 (UTC)          (F)     (DEG/KT/KT) (MB)    (MI)  (FT/S)
NY HARB ENTRANCE 1100            38 39  260/ 14/ 19 1010.3          3/ 5
4S FIRE IS       1100               37                N/A           3/ 5
20S FIRE ISLAND  1000               42              1011.2          4/ 5
23SW MTP         1100                                 N/A           4/ 5
HUDSON CANYON    NOT AVBL
EXECUTION ROCKS  1100            33 33  320/  4/  4   N/A
WESTERN LI SOUND 1100            33     320/  2/  4   N/A           0
CENTRAL LI SOUND 1100            33 35  350/  4/  4   N/A           0
EASTERN LI SOUND NOT AVBL
ROBBINS REEF     1100            34     270/  6/  7 1009.6
$$


>>>>>>>>>>>>>>>>>>>>>>>>>>>> KEY <<<<<<<<<<<<<<<<<<<<<<<<<<<
>                                                          <
>     SKY/WX - SKY CONDITION/PRESENT WEATHER               <
>     TMP    - TEMPERATURE IN FAHRENHEIT                   <
>     DP     - DEWPOINT IN FAHRENHEIT                      <
>     RH     - RELATIVE HUMIDITY IN PERCENT                <
>     WIND   - DIRECTION AND SPEED IN MPH                  <
>     PRES   - MEAN SEA LEVEL PRESSURE IN INCHES OF HG     <
>     WCI    - WIND CHILL INDEX                            <
>     VSB    - VISIBILITY IN MILES                         <
>     HX     - HEAT INDEX                                  <
>     TC     - TEMPERATURE IN CELSIUS                      <
>     VRB    - VARIABLE WIND DIRECTION                     <
>                                                          <
>>>>>>>>>>>>>>>>>>>>>>>>>>>> KEY <<<<<<<<<<<<<<<<<<<<<<<<<<<





USA.gov is the U.S. government's official web portal to all federal, state and local government web resources and services.